Date String (YYYY-MM-DD hh:mm:ss) UTC,Instrument flags,Ambient pressure (hPa),Sample flow (lpm),Bypass flow (lpm),Sample temperature (°C),Ambient temperature (°C),ASC tube jacket temperature (°C),LED temperature (°C),Box temperature (°C),Sample RH (%),Span deviation,Mass concentration (μg/m³),Mass concentration (μg/m³),Mass concentration (μg/m³)
DateTimeUTC,F1_M11,P_M11,Q1_M11,Q2_M11,T1_M11,T2_M11,T3_M11,T4_M11,T5_M11,U1_M11,ZSPAN_M11,X0_M11,X2_M11,X1_M11
2023-04-28 03:00:00,,0830.0,5.00,0.00,25.1,23.6,00.0,33.5,26.6,20.6,0000.0,0002.50,0000.77,0000.25
2023-04-28 03:01:00,,0830.0,5.00,0.00,25.1,23.6,00.0,33.5,26.6,20.6,0000.0,0002.46,0000.80,0000.25
2023-04-28 03:02:00,,0830.0,4.99,0.00,25.1,23.6,00.0,33.5,26.6,20.6,0000.0,0002.51,0000.83,0000.25
2023-04-28 03:03:00,,0830.0,5.00,0.00,25.1,23.6,00.0,33.5,26.6,20.6,0000.0,0002.47,0000.83,0000.26
2023-04-28 03:04:00,,0830.0,5.00,0.00,25.1,23.6,00.0,33.5,26.6,20.7,0000.0,0002.25,0000.78,0000.26
2023-04-28 03:05:00,,0830.1,5.01,0.00,25.1,23.6,00.0,33.5,26.6,20.6,0000.0,0002.17,0000.77,0000.26
2023-04-28 03:06:00,,0830.1,4.99,0.00,25.1,23.6,00.0,33.5,26.6,20.6,0000.0,0001.97,0000.71,0000.25
2023-04-28 03:07:00,,0830.1,4.99,0.00,25.1,23.6,00.0,33.5,26.6,20.7,0000.0,0001.64,0000.67,0000.25
2023-04-28 03:08:00,,0830.1,5.01,0.00,25.1,23.6,00.0,33.5,26.7,20.8,0000.0,0001.44,0000.67,0000.25
2023-04-28 03:09:00,,0830.1,5.00,0.00,25.1,23.6,00.0,33.5,26.7,20.9,0000.0,0001.28,0000.61,0000.24
2023-04-28 03:10:00,,0830.1,5.00,0.00,25.1,23.6,00.0,33.5,26.7,21.0,0000.0,0001.58,0000.59,0000.25
2023-04-28 03:11:00,,0830.1,4.98,0.00,25.1,23.6,00.0,33.5,26.7,20.8,0000.0,0003.73,0000.62,0000.26
2023-04-28 03:12:00,,0830.1,5.01,0.00,25.1,23.6,00.0,33.5,26.7,20.8,0000.0,0005.97,0000.63,0000.26
2023-04-28 03:13:00,,0830.1,5.01,0.00,25.1,23.7,00.0,33.5,26.7,21.0,0000.0,0006.01,0000.65,0000.26
2023-04-28 03:14:00,,0830.1,5.00,0.00,25.1,23.7,00.0,33.5,26.7,20.9,0000.0,0006.23,0000.72,0000.27
2023-04-28 03:15:00,,0830.2,5.00,0.00,25.2,23.7,00.0,33.5,26.8,20.7,0000.0,0006.81,0000.84,0000.28
2023-04-28 03:16:00,,0830.1,4.99,0.00,25.2,23.7,00.0,33.5,26.7,20.8,0000.0,0008.20,0000.97,0000.29
2023-04-28 03:17:00,,0830.1,5.00,0.00,25.2,23.7,00.0,33.5,26.8,20.7,0000.0,0008.81,0001.06,0000.30
2023-04-28 03:18:00,,0830.1,5.00,0.00,25.2,23.8,00.0,33.5,26.7,20.8,0000.0,0008.89,0001.09,0000.31
2023-04-28 03:19:00,,0830.1,5.01,0.00,25.2,23.8,00.0,33.5,26.7,20.7,0000.0,0009.02,0001.13,0000.32
2023-04-28 03:20:00,,0830.1,5.00,0.00,25.2,23.8,00.0,33.5,26.7,20.7,0000.0,0009.09,0001.18,0000.33
2023-04-28 03:21:00,,0830.2,5.00,0.00,25.2,23.8,00.0,33.6,26.8,20.7,0000.0,0009.14,0001.24,0000.33
2023-04-28 03:22:00,,0830.3,4.98,0.00,25.2,23.8,00.0,33.6,26.8,20.7,0000.0,0008.30,0001.27,0000.32
2023-04-28 03:23:00,,0830.2,5.00,0.00,25.2,23.8,00.0,33.6,26.8,20.7,0000.0,0007.17,0001.23,0000.32
2023-04-28 03:24:00,,0830.2,5.01,0.00,25.2,23.8,00.0,33.6,26.8,20.9,0000.0,0007.15,0001.22,0000.31
2023-04-28 03:25:00,,0830.3,5.01,0.00,25.3,23.9,00.0,33.6,26.8,20.9,0000.0,0006.88,0001.13,0000.30
2023-04-28 03:26:00,,0830.2,4.99,0.00,25.3,23.9,00.0,33.6,26.8,20.5,0000.0,0006.57,0001.06,0000.29
2023-04-28 03:27:00,,0830.2,5.00,0.00,25.3,23.9,00.0,33.6,26.8,20.2,0000.0,0004.48,0000.98,0000.29
2023-04-28 03:28:00,,0830.2,5.00,0.00,25.3,23.9,00.0,33.6,26.9,20.1,0000.0,0003.38,0000.89,0000.29
2023-04-28 03:29:00,,0830.2,5.01,0.00,25.3,23.9,00.0,33.6,26.8,20.2,0000.0,0003.10,0000.84,0000.28
2023-04-28 03:30:00,,0830.3,5.00,0.00,25.3,23.9,00.0,33.6,26.8,20.3,0000.0,0003.21,0000.80,0000.27
2023-04-28 03:31:00,,0830.2,5.00,0.00,25.3,23.9,00.0,33.6,26.8,20.2,0000.0,0003.16,0000.77,0000.26
2023-04-28 03:32:00,,0830.3,5.00,0.00,25.3,23.9,00.0,33.6,26.8,20.2,0000.0,0003.01,0000.76,0000.26
2023-04-28 03:33:00,,0830.3,5.01,0.00,25.3,23.9,00.0,33.6,26.9,20.1,0000.0,0002.65,0000.72,0000.26
2023-04-28 03:34:00,,0830.3,5.01,0.00,25.3,24.0,00.0,33.7,26.9,20.0,0000.0,0002.39,0000.75,0000.26
2023-04-28 03:35:00,,0830.3,4.99,0.00,25.3,24.0,00.0,33.7,26.9,20.0,0000.0,0002.36,0000.73,0000.27
2023-04-28 03:36:00,,0830.3,5.00,0.00,25.3,23.9,00.0,33.7,26.9,20.0,0000.0,0002.38,0000.73,0000.27
2023-04-28 03:37:00,,0830.3,4.99,0.00,25.3,23.9,00.0,33.7,26.9,20.0,0000.0,0002.31,0000.69,0000.27
2023-04-28 03:38:00,,0830.4,5.00,0.00,25.3,23.9,00.0,33.7,26.8,20.1,0000.0,0002.26,0000.64,0000.26
2023-04-28 03:39:00,,0830.4,5.01,0.00,25.3,23.9,00.0,33.7,26.9,20.3,0000.0,0002.23,0000.63,0000.26
2023-04-28 03:40:00,,0830.4,5.01,0.00,25.3,23.9,00.0,33.7,26.9,20.2,0000.0,0002.23,0000.66,0000.27
2023-04-28 03:41:00,,0830.4,5.00,0.00,25.3,23.9,00.0,33.7,26.8,20.2,0000.0,0001.98,0000.68,0000.29
2023-04-28 03:42:00,,0830.5,5.00,0.00,25.3,23.9,00.0,33.7,26.8,20.2,0000.0,0001.91,0000.70,0000.31
2023-04-28 03:43:00,,0830.7,4.99,0.00,25.3,23.9,00.0,33.7,26.9,20.2,0000.0,0001.86,0000.67,0000.32
2023-04-28 03:44:00,,0830.5,5.01,0.00,25.3,23.9,00.0,33.7,26.9,20.1,0000.0,0001.72,0000.63,0000.32
2023-04-28 03:45:00,,0830.5,5.01,0.00,25.3,23.9,00.0,33.7,26.9,20.0,0000.0,0001.25,0000.59,0000.33
2023-04-28 03:46:00,,0830.7,5.00,0.00,25.4,24.0,00.0,33.7,26.9,19.9,0000.0,0001.23,0000.58,0000.33
2023-04-28 03:47:00,,0830.5,4.99,0.00,25.4,24.0,00.0,33.7,26.9,20.0,0000.0,0001.31,0000.62,0000.35
2023-04-28 03:48:00,,0830.6,5.00,0.00,25.4,24.0,00.0,33.7,26.9,20.0,0000.0,0001.32,0000.64,0000.36
2023-04-28 03:49:00,,0830.6,5.01,0.00,25.4,24.0,00.0,33.7,26.9,19.8,0000.0,0001.37,0000.67,0000.38
2023-04-28 03:50:00,,0830.7,5.01,0.00,25.4,24.0,00.0,33.7,26.9,19.7,0000.0,0001.37,0000.71,0000.40
2023-04-28 03:51:00,,0830.7,5.00,0.00,25.4,24.0,00.0,33.7,26.9,19.7,0000.0,0001.37,0000.72,0000.40
2023-04-28 03:52:00,,0830.8,5.00,0.00,25.4,24.1,00.0,33.7,26.9,19.8,0000.0,0001.35,0000.72,0000.40
2023-04-28 03:53:00,,0830.8,4.99,0.00,25.4,24.1,00.0,33.7,26.9,19.7,0000.0,0001.36,0000.72,0000.40
2023-04-28 03:54:00,,0830.8,5.00,0.00,25.4,24.1,00.0,33.8,27.0,19.8,0000.0,0002.11,0000.76,0000.41
2023-04-28 03:55:00,,0830.8,5.02,0.00,25.4,24.1,00.0,33.8,27.0,19.8,0000.0,0002.18,0000.79,0000.42
2023-04-28 03:56:00,,0830.9,4.99,0.00,25.4,24.1,00.0,33.8,27.0,19.7,0000.0,0002.19,0000.81,0000.42
2023-04-28 03:57:00,,0830.9,4.99,0.00,25.5,24.1,00.0,33.8,27.0,19.7,0000.0,0002.37,0000.86,0000.42
2023-04-28 03:58:00,,0830.9,5.00,0.00,25.5,24.1,00.0,33.8,27.0,19.7,0000.0,0002.30,0000.83,0000.42
2023-04-28 03:59:00,,0830.9,5.01,0.00,25.5,24.1,00.0,33.8,27.0,19.7,0000.0,0002.32,0000.82,0000.41
